Time,TemperatureF,DewpointF,PressureIn,WindDirection,WindDirectionDegrees,WindSpeedMPH,WindSpeedGustMPH,Humidity,HourlyPrecipIn,Conditions,Clouds,dailyrainin,SolarRadiationWatts/m^2,SoftwareType,DateUTC
2013-06-17 00:02:00,65.0,61.0,-100.00,SW,219,8.0,14.0,87,0.00,,,0.00,0.000000,,2013-06-17 04:02:00,
2013-06-17 00:12:00,65.0,60.0,-100.00,SW,222,8.0,16.0,85,0.00,,,0.00,0.000000,,2013-06-17 04:12:00,
2013-06-17 00:34:00,65.0,60.0,-100.00,SW,222,8.0,16.0,85,0.00,,,0.00,0.000000,,2013-06-17 04:34:00,
2013-06-17 00:43:00,65.0,60.0,-100.00,SW,222,8.0,16.0,85,0.00,,,0.00,0.000000,,2013-06-17 04:43:00,
2013-06-17 00:53:00,65.0,60.0,-100.00,SW,222,8.0,16.0,85,0.00,,,0.00,0.000000,,2013-06-17 04:53:00,
2013-06-17 01:02:00,65.0,60.0,-100.00,SW,222,8.0,16.0,85,0.00,,,0.00,0.000000,,2013-06-17 05:02:00,
2013-06-17 01:12:00,63.0,60.0,-100.00,SW,231,8.0,15.0,89,0.00,,,0.00,0.000000,,2013-06-17 05:12:00,
2013-06-17 01:44:00,63.0,60.0,-100.00,SW,231,8.0,15.0,89,0.00,,,0.00,0.000000,,2013-06-17 05:44:00,
2013-06-17 01:53:00,63.0,60.0,-100.00,SW,231,8.0,15.0,89,0.00,,,0.00,0.000000,,2013-06-17 05:53:00,
2013-06-17 02:02:00,63.0,60.0,-100.00,SW,231,8.0,15.0,89,0.00,,,0.00,0.000000,,2013-06-17 06:02:00,
2013-06-17 02:12:00,63.0,60.0,-100.00,SW,229,7.0,16.0,91,0.00,,,0.00,0.000000,,2013-06-17 06:12:00,
2013-06-17 02:33:00,63.0,60.0,-100.00,SW,229,7.0,16.0,91,0.00,,,0.00,0.000000,,2013-06-17 06:33:00,
2013-06-17 02:43:00,63.0,60.0,-100.00,SW,229,7.0,16.0,91,0.00,,,0.00,0.000000,,2013-06-17 06:43:00,
2013-06-17 02:53:00,63.0,60.0,-100.00,SW,229,7.0,16.0,91,0.00,,,0.00,0.000000,,2013-06-17 06:53:00,
2013-06-17 03:02:00,63.0,60.0,-100.00,SW,229,7.0,16.0,91,0.00,,,0.00,0.000000,,2013-06-17 07:02:00,
2013-06-17 03:12:00,63.0,61.0,-100.00,WSW,247,4.0,11.0,93,0.00,,,0.00,0.000000,,2013-06-17 07:12:00,
2013-06-17 03:33:00,63.0,61.0,-100.00,WSW,247,4.0,11.0,93,0.00,,,0.00,0.000000,,2013-06-17 07:33:00,
2013-06-17 03:43:00,63.0,61.0,-100.00,WSW,247,4.0,11.0,93,0.00,,,0.00,0.000000,,2013-06-17 07:43:00,
2013-06-17 03:53:00,63.0,61.0,-100.00,WSW,247,4.0,11.0,93,0.00,,,0.00,0.000000,,2013-06-17 07:53:00,
2013-06-17 04:02:00,63.0,61.0,-100.00,WSW,247,4.0,11.0,93,0.00,,,0.00,0.000000,,2013-06-17 08:02:00,
2013-06-17 04:12:00,63.0,60.0,-100.00,SW,227,3.0,6.0,90,0.00,,,0.00,0.000000,,2013-06-17 08:12:00,
2013-06-17 04:34:00,63.0,60.0,-100.00,SW,227,3.0,6.0,90,0.00,,,0.00,0.000000,,2013-06-17 08:34:00,
2013-06-17 04:43:00,63.0,60.0,-100.00,SW,227,3.0,6.0,90,0.00,,,0.00,0.000000,,2013-06-17 08:43:00,
2013-06-17 04:53:00,63.0,60.0,-100.00,SW,227,3.0,6.0,90,0.00,,,0.00,0.000000,,2013-06-17 08:53:00,
2013-06-17 05:02:00,63.0,60.0,-100.00,SW,227,3.0,6.0,90,0.00,,,0.00,0.000000,,2013-06-17 09:02:00,
2013-06-17 05:12:00,62.0,59.0,-100.00,SW,226,5.0,9.0,90,0.00,,,0.00,4.000000,,2013-06-17 09:12:00,
2013-06-17 05:34:00,62.0,59.0,-100.00,SW,226,5.0,9.0,90,0.00,,,0.00,4.000000,,2013-06-17 09:34:00,
2013-06-17 05:44:00,62.0,59.0,-100.00,SW,226,5.0,9.0,90,0.00,,,0.00,4.000000,,2013-06-17 09:44:00,
2013-06-17 05:53:00,62.0,59.0,-100.00,SW,226,5.0,9.0,90,0.00,,,0.00,4.000000,,2013-06-17 09:53:00,
2013-06-17 06:02:00,62.0,59.0,-100.00,SW,226,5.0,9.0,90,0.00,,,0.00,4.000000,,2013-06-17 10:02:00,
2013-06-17 06:12:00,63.0,60.0,-100.00,SW,229,5.0,9.0,89,0.00,,,0.00,57.000000,,2013-06-17 10:12:00,
2013-06-17 06:33:00,63.0,60.0,-100.00,SW,229,5.0,9.0,89,0.00,,,0.00,57.000000,,2013-06-17 10:33:00,
2013-06-17 06:43:00,63.0,60.0,-100.00,SW,229,5.0,9.0,89,0.00,,,0.00,57.000000,,2013-06-17 10:43:00,
2013-06-17 06:54:00,63.0,60.0,-100.00,SW,229,5.0,9.0,89,0.00,,,0.00,57.000000,,2013-06-17 10:54:00,
2013-06-17 07:02:00,63.0,60.0,-100.00,SW,229,5.0,9.0,89,0.00,,,0.00,57.000000,,2013-06-17 11:02:00,
2013-06-17 07:12:00,67.0,61.0,-100.00,SW,227,5.0,10.0,81,0.00,,,0.00,301.000000,,2013-06-17 11:12:00,
2013-06-17 07:33:00,67.0,61.0,-100.00,SW,227,5.0,10.0,81,0.00,,,0.00,301.000000,,2013-06-17 11:33:00,
2013-06-17 07:43:00,67.0,61.0,-100.00,SW,227,5.0,10.0,81,0.00,,,0.00,301.000000,,2013-06-17 11:43:00,
2013-06-17 07:53:00,67.0,61.0,-100.00,SW,227,5.0,10.0,81,0.00,,,0.00,301.000000,,2013-06-17 11:53:00,
2013-06-17 08:02:00,67.0,61.0,-100.00,SW,227,5.0,10.0,81,0.00,,,0.00,301.000000,,2013-06-17 12:02:00,
2013-06-17 08:12:00,70.0,61.0,-100.00,WSW,237,5.0,9.0,72,0.00,,,0.00,511.000000,,2013-06-17 12:12:00,
2013-06-17 08:43:00,70.0,61.0,-100.00,WSW,237,5.0,9.0,72,0.00,,,0.00,511.000000,,2013-06-17 12:43:00,
2013-06-17 08:53:00,70.0,61.0,-100.00,WSW,237,5.0,9.0,72,0.00,,,0.00,511.000000,,2013-06-17 12:53:00,
2013-06-17 09:02:00,70.0,61.0,-100.00,WSW,237,5.0,9.0,72,0.00,,,0.00,511.000000,,2013-06-17 13:02:00,
2013-06-17 09:12:00,72.0,61.0,-100.00,SW,229,6.0,12.0,69,0.00,,,0.00,760.000000,,2013-06-17 13:12:00,
2013-06-17 09:43:00,72.0,61.0,-100.00,SW,229,6.0,12.0,69,0.00,,,0.00,760.000000,,2013-06-17 13:43:00,
2013-06-17 09:53:00,72.0,61.0,-100.00,SW,229,6.0,12.0,69,0.00,,,0.00,760.000000,,2013-06-17 13:53:00,
2013-06-17 10:02:00,72.0,61.0,-100.00,SW,229,6.0,12.0,69,0.00,,,0.00,760.000000,,2013-06-17 14:02:00,
2013-06-17 10:12:00,75.0,63.0,-100.00,SW,236,7.0,13.0,67,0.00,,,0.00,924.000000,,2013-06-17 14:12:00,
2013-06-17 10:44:00,75.0,63.0,-100.00,SW,236,7.0,13.0,67,0.00,,,0.00,924.000000,,2013-06-17 14:44:00,
2013-06-17 10:54:00,75.0,63.0,-100.00,SW,236,7.0,13.0,67,0.00,,,0.00,924.000000,,2013-06-17 14:54:00,
2013-06-17 11:02:00,75.0,63.0,-100.00,SW,236,7.0,13.0,67,0.00,,,0.00,924.000000,,2013-06-17 15:02:00,
2013-06-17 11:12:00,79.0,64.0,-100.00,SW,219,7.0,13.0,61,0.00,,,0.00,1111.000000,,2013-06-17 15:12:00,
2013-06-17 11:43:00,79.0,64.0,-100.00,SW,219,7.0,13.0,61,0.00,,,0.00,1111.000000,,2013-06-17 15:43:00,
2013-06-17 11:53:00,79.0,64.0,-100.00,SW,219,7.0,13.0,61,0.00,,,0.00,1111.000000,,2013-06-17 15:53:00,
2013-06-17 12:02:00,79.0,64.0,-100.00,SW,219,7.0,13.0,61,0.00,,,0.00,1111.000000,,2013-06-17 16:02:00,
2013-06-17 12:12:00,80.0,62.0,-100.00,SW,218,8.0,17.0,55,0.00,,,0.00,1198.000000,,2013-06-17 16:12:00,
2013-06-17 12:43:00,80.0,62.0,-100.00,SW,218,8.0,17.0,55,0.00,,,0.00,1198.000000,,2013-06-17 16:43:00,
2013-06-17 12:54:00,80.0,62.0,-100.00,SW,218,8.0,17.0,55,0.00,,,0.00,1198.000000,,2013-06-17 16:54:00,
2013-06-17 13:02:00,80.0,62.0,-100.00,SW,218,8.0,17.0,55,0.00,,,0.00,1198.000000,,2013-06-17 17:02:00,
2013-06-17 13:12:00,81.0,63.0,-100.00,SSW,207,7.0,15.0,55,0.00,,,0.00,1217.000000,,2013-06-17 17:12:00,
2013-06-17 13:33:00,81.0,63.0,-100.00,SSW,207,7.0,15.0,55,0.00,,,0.00,1217.000000,,2013-06-17 17:33:00,
2013-06-17 13:43:00,81.0,63.0,-100.00,SSW,207,7.0,15.0,55,0.00,,,0.00,1217.000000,,2013-06-17 17:43:00,
2013-06-17 13:52:00,81.0,63.0,-100.00,SSW,207,7.0,15.0,55,0.00,,,0.00,1217.000000,,2013-06-17 17:52:00,
2013-06-17 14:02:00,81.0,63.0,-100.00,SSW,207,7.0,15.0,55,0.00,,,0.00,1217.000000,,2013-06-17 18:02:00,
2013-06-17 14:12:00,83.0,64.0,-100.00,SSW,203,6.0,17.0,53,0.00,,,0.00,1174.000000,,2013-06-17 18:12:00,
2013-06-17 14:33:00,83.0,64.0,-100.00,SSW,203,6.0,17.0,53,0.00,,,0.00,1174.000000,,2013-06-17 18:33:00,
2013-06-17 14:43:00,83.0,64.0,-100.00,SSW,203,6.0,17.0,53,0.00,,,0.00,1174.000000,,2013-06-17 18:43:00,
2013-06-17 14:53:00,83.0,64.0,-100.00,SSW,203,6.0,17.0,53,0.00,,,0.00,1174.000000,,2013-06-17 18:53:00,
2013-06-17 15:02:00,83.0,64.0,-100.00,SSW,203,6.0,17.0,53,0.00,,,0.00,1174.000000,,2013-06-17 19:02:00,
2013-06-17 15:43:00,82.0,65.0,-100.00,SSW,201,6.0,12.0,56,-99.99,,,0.00,1067.000000,,2013-06-17 19:43:00,
2013-06-17 15:54:00,82.0,65.0,-100.00,SSW,201,6.0,12.0,56,-99.99,,,0.00,1067.000000,,2013-06-17 19:54:00,
2013-06-17 16:02:00,82.0,65.0,-100.00,SSW,201,6.0,12.0,56,-99.99,,,0.00,1067.000000,,2013-06-17 20:02:00,
2013-06-17 16:12:00,81.0,64.0,-100.00,SSW,209,7.0,19.0,57,-99.99,,,0.00,897.000000,,2013-06-17 20:12:00,
2013-06-17 16:34:00,81.0,64.0,-100.00,SSW,209,7.0,19.0,57,-99.99,,,0.00,897.000000,,2013-06-17 20:34:00,
2013-06-17 16:43:00,81.0,64.0,-100.00,SSW,209,7.0,19.0,57,-99.99,,,0.00,897.000000,,2013-06-17 20:43:00,
2013-06-17 16:52:00,81.0,64.0,-100.00,SSW,209,7.0,19.0,57,-99.99,,,0.00,897.000000,,2013-06-17 20:52:00,
2013-06-17 17:02:00,81.0,64.0,-100.00,SSW,209,7.0,19.0,57,-99.99,,,0.00,897.000000,,2013-06-17 21:02:00,
2013-06-17 18:54:00,76.0,61.0,-100.00,SSW,213,7.0,18.0,60,0.00,,,-99.99,416.000000,,2013-06-17 22:54:00,
2013-06-17 19:02:00,76.0,61.0,-100.00,SSW,213,7.0,18.0,60,0.00,,,-99.99,416.000000,,2013-06-17 23:02:00,
2013-06-17 19:11:00,76.0,61.0,-100.00,SSW,213,7.0,18.0,60,0.00,,,-99.99,416.000000,,2013-06-17 23:11:00,
2013-06-17 19:12:00,69.0,61.0,-100.00,West,263,5.0,14.0,76,0.00,,,0.00,40.000000,,2013-06-17 23:12:00,
2013-06-17 19:33:00,69.0,61.0,-100.00,West,263,5.0,14.0,76,0.00,,,0.00,40.000000,,2013-06-17 23:33:00,
2013-06-17 19:43:00,69.0,61.0,-100.00,West,263,5.0,14.0,76,0.00,,,0.00,40.000000,,2013-06-17 23:43:00,
2013-06-17 19:53:00,69.0,61.0,-100.00,West,263,5.0,14.0,76,0.00,,,0.00,40.000000,,2013-06-17 23:53:00,
2013-06-17 20:02:00,69.0,61.0,-100.00,West,263,5.0,14.0,76,0.00,,,0.00,40.000000,,2013-06-18 00:02:00,
2013-06-17 20:12:00,64.0,57.0,-100.00,NNW,333,5.0,12.0,78,0.00,,,-99.99,14.000000,,2013-06-18 00:12:00,
2013-06-17 20:43:00,64.0,57.0,-100.00,NNW,333,5.0,12.0,78,0.00,,,-99.99,14.000000,,2013-06-18 00:43:00,
2013-06-17 20:52:00,64.0,57.0,-100.00,NNW,333,5.0,12.0,78,0.00,,,-99.99,14.000000,,2013-06-18 00:52:00,
2013-06-17 21:01:00,64.0,57.0,-100.00,NNW,333,5.0,12.0,78,0.00,,,-99.99,14.000000,,2013-06-18 01:01:00,
2013-06-17 21:12:00,63.0,61.0,-100.00,NW,322,0.0,7.0,93,0.01,,,0.01,0.000000,,2013-06-18 01:12:00,
2013-06-17 21:44:00,63.0,61.0,-100.00,NW,322,0.0,7.0,93,0.01,,,0.01,0.000000,,2013-06-18 01:44:00,
2013-06-17 21:53:00,63.0,61.0,-100.00,NW,322,0.0,7.0,93,0.01,,,0.01,0.000000,,2013-06-18 01:53:00,
2013-06-17 22:02:00,63.0,61.0,-100.00,NW,322,0.0,7.0,93,0.01,,,0.01,0.000000,,2013-06-18 02:02:00,
2013-06-17 22:12:00,63.0,61.0,-100.00,SSW,202,0.0,4.0,94,0.00,,,0.01,0.000000,,2013-06-18 02:12:00,
2013-06-17 22:43:00,63.0,61.0,-100.00,SSW,202,0.0,4.0,94,0.00,,,0.01,0.000000,,2013-06-18 02:43:00,
2013-06-17 22:53:00,63.0,61.0,-100.00,SSW,202,0.0,4.0,94,0.00,,,0.01,0.000000,,2013-06-18 02:53:00,
2013-06-17 23:02:00,63.0,61.0,-100.00,SSW,202,0.0,4.0,94,0.00,,,0.01,0.000000,,2013-06-18 03:02:00,
2013-06-17 23:12:00,62.0,61.0,-100.00,SSW,197,0.0,4.0,96,0.00,,,0.01,0.000000,,2013-06-18 03:12:00,
2013-06-17 23:43:00,62.0,61.0,-100.00,SSW,197,0.0,4.0,96,0.00,,,0.01,0.000000,,2013-06-18 03:43:00,
2013-06-17 23:53:00,62.0,61.0,-100.00,SSW,197,0.0,4.0,96,0.00,,,0.01,0.000000,,2013-06-18 03:53:00,